This is the latest recevied weather packets stored in our database for station/object EA3GKP-10. If no packets are shown the sender has not sent any weather packets the latest 10 day(s).
| Time | Temp. | Humidity | Pressure | Rain* | Wind** | Luminosity | Snow |
|---|---|---|---|---|---|---|---|
| 1777976725 | 20° C | - | - | 0 mm | 2.24 m/s, 141° | - | - |
| 1777976419 | 20.56° C | - | - | 0 mm | 1.34 m/s, 20° | - | - |
| 1777976115 | 20° C | - | - | 0 mm | 1.34 m/s, 124° | - | - |
| 1777975810 | 19.44° C | - | - | 0 mm | 2.68 m/s, 91° | - | - |
| 1777975507 | 20° C | - | - | 0 mm | 2.24 m/s, 87° | - | - |
| 1777975204 | 20° C | - | - | 0 mm | 1.79 m/s, 138° | - | - |
| 1777974597 | 19.44° C | - | - | 0 mm | 1.79 m/s, 73° | - | - |
| 1777974294 | 20° C | - | - | 0 mm | 2.24 m/s, 111° | - | - |
| 1777973991 | 20° C | - | - | 0 mm | 1.34 m/s, 53° | - | - |
| 1777973688 | 20.56° C | - | - | 0 mm | 2.68 m/s, 80° | - | - |
| 1777973383 | 21.11° C | - | - | 0 mm | 1.34 m/s, 38° | - | - |
| 1777973080 | 20.56° C | - | - | 0 mm | 2.24 m/s, 117° | - | - |
| 1777972777 | 20.56° C | - | - | 0 mm | 0.89 m/s, 110° | - | - |
| 1777972474 | 20° C | - | - | 0 mm | 1.79 m/s, 91° | - | - |
| 1777972170 | 19.44° C | - | - | 0 mm | 3.13 m/s, 113° | - | - |
| 1777971862 | 20° C | - | - | 0 mm | 1.34 m/s, 17° | - | - |
| 1777971253 | 20° C | - | - | 0 mm | 1.79 m/s, 87° | - | - |
| 1777970949 | 20° C | - | - | 0 mm | 0.89 m/s, 111° | - | - |
| 1777970646 | 20.56° C | - | - | 0 mm | 0.45 m/s, 121° | - | - |
| 1777970343 | 20° C | - | - | 0 mm | 0.89 m/s, 120° | - | - |
| 1777970038 | 20.56° C | - | - | 0 mm | 1.34 m/s, 105° | - | - |
| 1777969732 | 20° C | - | - | 0 mm | 0.45 m/s, 98° | - | - |
| 1777969428 | 18.89° C | - | - | 0 mm | 1.34 m/s, 45° | - | - |
| 1777969124 | 18.89° C | - | - | 0 mm | 1.34 m/s, 91° | - | - |
| 1777968821 | 18.89° C | - | - | 0 mm | 1.79 m/s, 120° | - | - |
* Rain latest hour (hover to see other rain measurements)
** Current wind speed in m/s (hover to see current wind gust speed)